Waarnemingen

Advertentie
Mijn weer
Landsort, Zweden (2567): temperatuur & dauwpunt: 15.08.2018 06:00:00 - 21.08.2018 06:00:00 (CEST)Landsort, Zweden (2567): windsnelheid & windstoten: 15.08.2018 06:00:00 - 21.08.2018 06:00:00 (CEST)Landsort, Zweden (2567): windrichting: 15.08.2018 06:00:00 - 21.08.2018 06:00:00 (CEST)Landsort, Zweden (2567): luchtdruk: 15.08.2018 06:00:00 - 21.08.2018 06:00:00 (CEST)Landsort, Zweden (2567): zicht: 15.08.2018 06:00:00 - 21.08.2018 06:00:00 (CEST)Landsort, Zweden (2567): neerslag: 15.08.2018 06:00:00 - 21.08.2018 06:00:00 (CEST)
Datum & Tijd tt [°C] td [°C] ff [km/u] ff [kn] fx [km/u] fx [kn] dd ppp [hPa] vv [km] rr [mm]
21.08.2018 06:00:00 - - - - - - - - - -
21.08.2018 05:00:00 - - - - - - - - - -
21.08.2018 04:00:00 - - - - - - - - - -
21.08.2018 03:00:00 - - - - - - - - - -
21.08.2018 02:00:00 - - - - - - - - - -
21.08.2018 01:00:00 - - - - - - - - - -
21.08.2018 00:00:00 - - - - - - - - - -
20.08.2018 23:00:00 - - - - - - - - - -
20.08.2018 22:00:00 - - - - - - - - - -
20.08.2018 21:00:00 - - - - - - - - - -
20.08.2018 20:00:00 - - - - - - - - - -
20.08.2018 19:00:00 - - - - - - - - - -
20.08.2018 18:00:00 - - - - - - - - - -
20.08.2018 17:00:00 - - - - - - - - - -
20.08.2018 16:00:00 15,8 13,4 12 7 16 8 W 1007,1 49 0,0
20.08.2018 15:00:00 - - - - - - - - - -
20.08.2018 14:00:00 14,6 13,9 10 6 18 10 NO 1007,0 8 0,3
20.08.2018 13:00:00 14,7 14,1 13 7 18 10 NO 1006,8 14 2,1
20.08.2018 12:00:00 14,7 14,1 11 6 14 7 NO 1007,1 6 0,6
20.08.2018 11:00:00 15,0 14,2 10 5 12 6 NO 1007,3 7 0,5
20.08.2018 10:00:00 15,1 13,9 3 2 11 6 O 1007,5 4,9 0,0
20.08.2018 09:00:00 15,5 13,8 5 3 14 7 O 1007,6 16 0,0
20.08.2018 08:00:00 15,3 13,6 10 5 14 7 O 1007,8 39 0,0
20.08.2018 07:00:00 15,1 13,9 9 5 11 6 O 1008,3 26 0,0
20.08.2018 06:00:00 15,0 13,9 8 4 9 5 O 1008,6 25 0,0
20.08.2018 05:00:00 14,9 13,7 3 1 14 8 N 1009,2 13 0,4
20.08.2018 04:00:00 15,1 13,6 3 2 20 11 NW 1009,9 10 0,8
20.08.2018 03:00:00 15,7 13,2 10 6 29 16 W 1010,6 12 0,6
20.08.2018 02:00:00 16,4 14,0 20 11 30 16 W 1010,9 13 0,0
20.08.2018 01:00:00 17,4 13,0 25 14 30 16 W 1011,1 31 0,0
20.08.2018 00:00:00 17,6 14,8 8 4 15 8 W 1011,5 44 0,0
19.08.2018 23:00:00 17,7 13,7 7 4 15 8 WNW 1011,5 45 0,0
19.08.2018 22:00:00 18,2 14,3 8 4 11 6 WZW 1011,7 44 0,0
19.08.2018 21:00:00 18,2 13,8 5 3 12 6 WZW 1012,1 45 0,0
19.08.2018 20:00:00 18,6 13,3 5 3 14 8 ZW 1012,1 49 0,0
19.08.2018 19:00:00 19,6 10,4 3 2 14 8 ZZO 1012,6 49 0,0
19.08.2018 18:00:00 18,7 12,7 11 6 14 8 Z 1012,6 40 0,0
19.08.2018 17:00:00 20,4 8,6 4 2 23 13 WZW 1012,7 48 0,0
19.08.2018 16:00:00 20,1 9,6 10 6 26 14 WZW 1012,8 46 0,0
19.08.2018 15:00:00 21,0 10,6 15 8 34 19 WNW 1012,7 37 0,0
19.08.2018 14:00:00 19,5 12,3 15 8 40 22 W 1012,7 34 0,0
19.08.2018 13:00:00 19,5 11,5 26 14 40 22 W 1012,4 28 0,0
19.08.2018 12:00:00 18,8 10,5 31 17 47 25 W 1012,2 32 0,0
19.08.2018 11:00:00 18,5 10,5 30 16 47 25 W 1012,3 36 0,0
19.08.2018 10:00:00 18,0 11,1 31 17 53 29 W 1012,0 28 0,0
19.08.2018 09:00:00 17,8 11,8 32 18 54 29 W 1012,0 27 0,0
19.08.2018 08:00:00 17,8 12,0 34 18 54 29 W 1011,7 38 0,0
19.08.2018 07:00:00 17,9 13,7 41 22 51 28 W 1011,2 41 0,0
19.08.2018 06:00:00 17,8 15,4 32 17 47 25 WZW 1011,1 38 0,0
19.08.2018 05:00:00 17,9 15,1 36 19 53 28 WZW 1010,6 40 0,0
19.08.2018 04:00:00 17,7 15,0 38 20 57 31 ZW 1010,8 39 0,0
19.08.2018 03:00:00 17,5 15,1 37 20 59 32 ZW 1011,0 34 0,3
19.08.2018 02:00:00 17,5 14,8 43 23 63 34 ZW 1011,0 14 0,0
19.08.2018 01:00:00 17,9 14,4 48 26 63 34 ZW 1011,4 27 0,0
19.08.2018 00:00:00 18,1 14,3 39 21 60 33 ZW 1011,7 40 0,0
18.08.2018 23:00:00 18,3 14,3 37 20 54 29 ZW 1012,1 23 0,2
18.08.2018 22:00:00 - - - - - - - - - -
18.08.2018 21:00:00 - - - - - - - - - -
18.08.2018 20:00:00 - - - - - - - - - -
18.08.2018 19:00:00 - - - - - - - - - -
18.08.2018 18:00:00 - - - - - - - - - -
18.08.2018 17:00:00 - - - - - - - - - -
18.08.2018 16:00:00 - - - - - - - - - -
18.08.2018 15:00:00 - - - - - - - - - -
18.08.2018 14:00:00 - - - - - - - - - -
18.08.2018 13:00:00 - - - - - - - - - -
18.08.2018 12:00:00 17,9 13,0 18 10 25 13 WZW 1016,0 35 0,0
18.08.2018 11:00:00 17,5 13,3 16 9 23 12 WZW 1016,4 27 0,0
18.08.2018 10:00:00 17,4 12,5 18 10 25 14 W 1016,5 27 0,0
18.08.2018 09:00:00 17,1 12,4 18 10 24 13 W 1016,5 33 0,0
18.08.2018 08:00:00 16,8 12,7 14 8 23 13 W 1016,5 35 0,0
18.08.2018 07:00:00 16,1 13,2 18 10 23 12 W 1016,1 39 0,0
18.08.2018 06:00:00 16,0 13,4 14 8 23 12 W 1016,0 42 0,0
18.08.2018 05:00:00 16,1 13,2 14 8 24 13 W 1015,8 46 0,0
18.08.2018 04:00:00 16,4 13,2 16 9 24 13 W 1015,7 48 0,0
18.08.2018 03:00:00 16,7 13,3 17 9 24 13 W 1015,7 46 0,0
18.08.2018 02:00:00 16,7 13,0 18 10 23 12 W 1015,7 46 0,0
18.08.2018 01:00:00 16,7 14,4 13 7 18 10 W 1015,4 50 0,0
18.08.2018 00:00:00 17,4 15,2 14 7 21 12 W 1015,2 50 0,0
17.08.2018 23:00:00 17,5 16,8 9 5 21 12 WNW 1014,7 12 0,1
17.08.2018 22:00:00 17,8 17,2 16 8 23 12 W 1014,4 5 0,2
17.08.2018 21:00:00 17,9 17,1 16 8 34 18 W 1014,2 7 0,5
17.08.2018 20:00:00 18,2 17,4 19 11 47 25 WZW 1013,8 7 0,3
17.08.2018 19:00:00 19,1 17,6 24 13 47 25 WZW 1013,2 9 0,2
17.08.2018 18:00:00 20,2 16,5 33 18 43 23 ZZW 1012,4 28 0,0
17.08.2018 17:00:00 20,2 16,7 16 9 39 21 ZW 1013,0 27 0,0
17.08.2018 16:00:00 20,9 16,7 27 14 45 25 Z 1013,1 30 0,0
17.08.2018 15:00:00 21,0 16,8 30 16 48 26 Z 1013,4 26 0,0
17.08.2018 14:00:00 20,7 16,9 35 19 48 26 Z 1013,4 28 0,0
17.08.2018 13:00:00 21,3 17,3 29 16 41 22 Z 1014,3 27 0,0
17.08.2018 12:00:00 21,1 17,5 28 15 41 22 Z 1014,6 29 0,0
17.08.2018 11:00:00 20,2 17,5 24 13 41 22 ZZW 1014,9 24 0,0
17.08.2018 10:00:00 19,8 17,5 32 18 41 22 ZZW 1014,9 23 0,0
17.08.2018 09:00:00 19,6 17,4 29 16 42 23 ZZW 1015,0 28 0,0
17.08.2018 08:00:00 19,3 17,1 31 17 42 23 Z 1014,8 34 0,0
17.08.2018 07:00:00 19,1 17,1 31 17 40 22 Z 1015,0 23 0,0
17.08.2018 06:00:00 18,8 17,1 27 14 41 22 ZZW 1015,1 19 0,0
17.08.2018 05:00:00 18,9 17,1 30 16 42 23 ZZW 1015,1 13 0,0
17.08.2018 04:00:00 18,8 16,7 30 16 42 23 ZZW 1015,3 9 0,0
17.08.2018 03:00:00 18,7 16,8 26 14 41 22 ZZW 1015,3 9 0,0
17.08.2018 02:00:00 18,9 16,9 27 14 47 26 ZZW 1015,3 10 0,0
17.08.2018 01:00:00 19,1 17,4 34 18 47 26 ZZW 1015,2 9 0,0
17.08.2018 00:00:00 18,9 17,4 28 15 39 21 Z 1015,3 9 0,0
16.08.2018 23:00:00 18,8 17,6 29 16 40 22 Z 1015,2 8 0,0
16.08.2018 22:00:00 19,0 17,7 32 17 40 22 ZZW 1015,3 11 0,0
16.08.2018 21:00:00 19,1 17,1 29 16 40 22 ZZW 1015,3 15 0,0
16.08.2018 20:00:00 19,2 17,2 29 15 40 22 ZZW 1015,2 16 0,0
16.08.2018 19:00:00 19,3 17,0 29 16 40 22 Z 1015,2 22 0,0
16.08.2018 18:00:00 19,5 16,7 26 14 36 19 Z 1015,6 33 0,0
16.08.2018 17:00:00 19,5 16,8 25 13 35 19 ZZW 1016,0 39 0,0
16.08.2018 16:00:00 19,9 16,7 27 15 34 19 Z 1016,1 38 0,0
16.08.2018 15:00:00 20,0 16,6 26 14 34 19 ZZW 1016,3 38 0,0
16.08.2018 14:00:00 20,5 16,4 22 12 31 17 Z 1016,6 47 0,0
16.08.2018 13:00:00 19,8 15,8 22 12 28 15 Z 1016,6 38 0,0
16.08.2018 12:00:00 20,1 16,1 19 10 24 13 ZZW 1016,7 46 0,0
16.08.2018 11:00:00 19,7 16,2 15 8 20 11 ZZW 1016,9 50 0,0
16.08.2018 10:00:00 19,5 16,6 13 7 19 10 ZW 1016,7 41 0,0
16.08.2018 09:00:00 19,2 16,5 11 6 18 10 ZZW 1016,5 41 0,0
16.08.2018 08:00:00 18,3 16,2 11 6 14 8 ZZW 1016,5 47 0,0
16.08.2018 07:00:00 17,8 15,5 8 4 17 9 ZZW 1016,4 49 0,0
16.08.2018 06:00:00 17,0 15,1 9 5 20 11 ZW 1016,1 50 0,0
16.08.2018 05:00:00 17,2 15,3 13 7 23 13 WZW 1016,1 50 0,0
16.08.2018 04:00:00 17,3 15,7 15 8 25 13 WZW 1015,9 50 0,0
16.08.2018 03:00:00 17,5 15,8 14 8 25 13 WZW 1015,7 48 0,0
16.08.2018 02:00:00 17,6 15,8 18 10 24 13 ZW 1015,7 50 0,0
16.08.2018 01:00:00 17,5 16,0 18 10 24 13 ZW 1015,6 50 0,0
16.08.2018 00:00:00 17,3 15,6 15 8 24 13 ZW 1015,4 50 0,0
15.08.2018 23:00:00 17,5 15,2 14 8 21 11 ZW 1015,3 50 0,0
15.08.2018 22:00:00 17,0 15,1 11 6 16 9 ZZW 1015,1 50 0,0
15.08.2018 21:00:00 16,9 14,9 13 7 16 8 ZZW 1014,8 50 0,0
15.08.2018 20:00:00 17,0 14,5 10 6 13 7 Z 1014,4 50 0,0
15.08.2018 19:00:00 17,0 14,4 9 5 12 7 Z 1014,3 50 0,0
15.08.2018 18:00:00 17,0 14,2 9 5 12 7 ZZO 1013,9 50 0,0
15.08.2018 17:00:00 17,1 14,0 8 4 12 7 ZZO 1013,7 50 0,0
15.08.2018 16:00:00 17,3 14,2 6 3 13 7 ZZO 1013,5 50 0,0
15.08.2018 15:00:00 18,4 14,3 9 5 13 7 OZO 1013,1 48 0,0
15.08.2018 14:00:00 17,4 13,8 8 4 20 11 O 1012,7 42 0,0
15.08.2018 13:00:00 17,0 13,6 11 6 22 12 NO 1012,2 45 0,0
15.08.2018 12:00:00 16,2 13,9 15 8 25 13 NO 1011,7 50 0,0
15.08.2018 11:00:00 16,3 13,6 16 9 29 16 NNO 1011,1 50 0,0
15.08.2018 10:00:00 15,7 13,7 15 8 29 16 N 1010,5 50 0,0
15.08.2018 09:00:00 14,9 13,7 21 11 32 17 NNO 1009,8 23 0,0
15.08.2018 08:00:00 14,9 13,4 19 11 38 20 NNO 1009,2 50 0,0
15.08.2018 07:00:00 14,8 13,4 21 11 40 22 NNO 1008,8 50 0,0
15.08.2018 06:00:00 14,7 13,3 27 15 42 23 NNO 1008,2 50 0,0

tt = temperatuur
td = dauwpunt
ff = windsnelheid
fx = windstoten
dd = windrichting
ppp = luchtdruk
vv = zicht
rr = neerslag

Weerstations in de omgeving